DW9945 Weather Reports


time (UTC)temp
C
wind
direction
speed
KPH
gust
KPH
rain 1hr
cm
rain 24hr
cm
rain mn
cm
humidity
%
barometer
mb
20260507082518 13 77 4.8 12.9 0.00 0.00 0.00 71 1011.6
20260507082018 13 108 3.2 12.9 0.00 0.00 0.00 70 1011.6
20260507081519 13 86 6.4 12.9 0.00 0.00 0.00 70 1011.4
20260507081019 12 8 4.8 12.9 0.00 0.00 0.00 71 1011.5
20260507080019 12 30 6.4 9.7 0.00 0.00 0.00 72 1011.6
20260507075018 12 38 4.8 9.7 0.00 0.00 0.00 73 1011.6
20260507074519 12 23 4.8 11.3 0.00 0.00 0.00 73 1011.6
20260507074018 12 31 3.2 8.0 0.00 0.00 0.00 74 1011.6
20260507073019 12 66 8.0 12.9 0.00 0.00 0.00 73 1011.6
20260507072519 12 38 6.4 14.5 0.00 0.00 0.00 73 1011.6
20260507071519 12 48 8.0 14.5 0.00 0.00 0.00 73 1011.7
20260507071019 12 69 6.4 14.5 0.00 0.00 0.00 74 1011.6
20260507070519 12 69 4.8 9.7 0.00 0.00 0.00 74 1011.6
20260507070011 11 55 4.8 11.3 0.00 0.00 0.00 75 1011.5
20260507065519 11 57 4.8 11.3 0.00 0.00 0.00 76 1011.5
20260507065018 11 50 3.2 4.8 0.00 0.00 0.00 77 1011.3
20260507064519 11 29 6.4 14.5 0.00 0.00 0.00 77 1011.4
20260507063519 10 28 3.2 9.7 0.00 0.00 0.00 78 1011.2
20260507063019 10 37 3.2 8.0 0.00 0.00 0.00 78 1011.2
20260507062519 10 43 3.2 9.7 0.00 0.00 0.00 78 1011.2
20260507062007 10 34 4.8 12.9 0.00 0.00 0.00 78 1011.1
20260507061519 10 45 3.2 9.7 0.00 0.00 0.00 78 1011.1
20260507060519 10 56 8.0 14.5 0.00 0.00 0.00 77 1011.0
20260507060019 10 37 4.8 12.9 0.00 0.00 0.00 78 1010.9
20260507055519 10 41 6.4 14.5 0.00 0.00 0.00 78 1010.9
20260507054519 10 40 8.0 16.1 0.00 0.00 0.00 78 1010.9
20260507054018 10 31 9.7 19.3 0.00 0.00 0.00 79 1010.9
20260507053518 10 29 8.0 14.5 0.00 0.00 0.00 79 1010.9
20260507053019 10 26 9.7 19.3 0.00 0.00 0.00 79 1010.9
20260507052519 9 26 8.0 14.5 0.00 0.00 0.00 80 1010.9
20260507052019 9 27 8.0 19.3 0.00 0.00 0.00 80 1010.9
20260507051519 9 33 8.0 16.1 0.00 0.00 0.00 80 1010.9
20260507051020 9 12 8.0 14.5 0.00 0.00 0.00 80 1011.0
20260507050519 9 16 8.0 12.9 0.00 0.00 0.00 80 1011.0
20260507050019 9 25 8.0 14.5 0.00 0.00 0.00 80 1011.0
20260507045018 9 30 8.0 16.1 0.00 0.00 0.00 81 1010.8
20260507044518 9 12 8.0 14.5 0.00 0.00 0.00 80 1010.8
20260507044018 9 12 4.8 11.3 0.00 0.00 0.00 80 1010.9
20260507043518 9 14 6.4 12.9 0.00 0.00 0.00 80 1010.9
20260507043019 9 8 4.8 11.3 0.00 0.00 0.00 80 1011.0
20260507042518 9 3 4.8 12.9 0.00 0.00 0.00 81 1010.8
20260507041518 9 10 4.8 11.3 0.00 0.00 0.00 80 1010.9
20260507041018 9 10 8.0 12.9 0.00 0.00 0.00 80 1011.0
20260507040019 9 10 8.0 14.5 0.00 0.00 0.00 79 1011.0
20260507035519 9 6 4.8 11.3 0.00 0.00 0.00 79 1011.1
20260507035008 9 15 4.8 9.7 0.00 0.00 0.00 79 1011.1
20260507034519 9 21 4.8 12.9 0.00 0.00 0.00 79 1011.0
20260507034019 9 18 4.8 11.3 0.00 0.00 0.00 79 1011.0
20260507033519 9 29 4.8 12.9 0.00 0.00 0.00 79 1010.9
20260507033019 9 17 8.0 14.5 0.00 0.00 0.00 79 1011.0
20260507032519 9 12 8.0 14.5 0.00 0.00 0.00 78 1011.0
20260507032019 9 13 8.0 12.9 0.00 0.00 0.00 79 1011.0
20260507031519 9 19 6.4 14.5 0.00 0.00 0.00 79 1011.0
20260507031019 9 16 8.0 16.1 0.00 0.00 0.00 79 1011.0
20260507030519 9 8 9.7 14.5 0.00 0.00 0.00 79 1010.9
20260507025518 9 0 8.0 12.9 0.00 0.00 0.00 80 1011.0
20260507024519 9 11 3.2 8.0 0.00 0.00 0.00 80 1010.9
20260507024019 9 3 6.4 9.7 0.00 0.00 0.00 79 1010.9
20260507023519 9 0 4.8 8.0 0.00 0.00 0.00 79 1010.8
20260507023019 9 351 4.8 9.7 0.00 0.00 0.00 79 1010.9
20260507022019 8 0 6.4 11.3 0.00 0.00 0.00 79 1011.0
20260507021018 9 351 6.4 11.3 0.00 0.00 0.00 78 1011.0
20260507020518 9 1 8.0 11.3 0.00 0.00 0.00 78 1011.0
20260507020019 9 0 3.2 4.8 0.00 0.00 0.00 77 1011.0
20260507015518 9 351 4.8 9.7 0.00 0.00 0.00 77 1011.0
20260507015018 9 2 3.2 4.8 0.00 0.00 0.00 77 1010.9
20260507014019 9 5 1.6 4.8 0.00 0.00 0.00 76 1011.0
20260507013519 10 6 3.2 4.8 0.00 0.00 0.00 74 1011.0
20260507013018 10 16 0.0 0.0 0.00 0.00 0.00 73 1011.1
20260507012507 10 16 1.6 4.8 0.00 0.00 0.00 72 1011.1
20260507012018 10 14 3.2 4.8 0.00 0.00 0.00 71 1011.0
20260507011519 10 27 3.2 4.8 0.00 0.00 0.00 71 1011.0
20260507011008 10 27 3.2 8.0 0.00 0.00 0.00 70 1010.9
20260507010520 10 26 3.2 9.7 0.00 0.00 0.00 70 1011.0
20260507010007 10 36 1.6 4.8 0.00 0.00 0.00 69 1011.0
20260507005507 11 21 1.6 4.8 0.00 0.00 0.00 68 1011.1
20260507005007 11 30 3.2 4.8 0.00 0.00 0.00 68 1011.1
20260507004507 11 46 3.2 9.7 0.00 0.00 0.00 67 1011.1
20260507004007 11 46 4.8 9.7 0.00 0.00 0.00 67 1011.1
20260507003507 11 51 6.4 14.5 0.00 0.00 0.00 67 1011.2
20260507003007 11 47 8.0 16.1 0.00 0.00 0.00 66 1011.1
20260507002507 11 63 8.0 14.5 0.00 0.00 0.00 67 1011.3
20260507002007 11 57 4.8 14.5 0.00 0.00 0.00 66 1011.3
20260507001508 11 45 8.0 16.1 0.00 0.00 0.00 66 1011.3
20260507001008 11 30 8.0 19.3 0.00 0.00 0.00 66 1011.2
20260507000508 11 53 8.0 14.5 0.00 0.00 0.00 66 1011.2
20260506235510 11 56 11.3 19.3 0.00 0.00 0.00 65 1011.2
20260506235007 11 55 9.7 19.3 0.00 0.00 0.00 64 1011.0
20260506234507 11 45 11.3 24.1 0.00 0.00 0.00 64 1010.9
20260506234007 11 31 9.7 16.1 0.00 0.00 0.00 64 1010.8
20260506233507 11 29 9.7 20.9 0.00 0.00 0.00 64 1010.9
20260506233007 11 35 8.0 19.3 0.00 0.00 0.00 63 1010.9
20260506232507 11 34 8.0 19.3 0.00 0.00 0.00 63 1010.9
20260506232007 11 35 8.0 19.3 0.00 0.00 0.00 62 1010.9
20260506231508 11 36 9.7 19.3 0.00 0.00 0.00 63 1010.9
20260506230508 10 37 3.2 9.7 0.00 0.00 0.00 65 1010.9
20260506230007 10 11 3.2 9.7 0.00 0.00 0.00 65 1010.9
20260506225507 10 355 8.0 9.7 0.00 0.00 0.00 63 1011.0
20260506225007 10 356 8.0 11.3 0.00 0.00 0.00 62 1011.0
20260506224507 10 352 8.0 12.9 0.00 0.00 0.00 60 1010.9
20260506224007 10 357 8.0 14.5 0.00 0.00 0.00 58 1010.8
20260506223508 11 14 6.4 11.3 0.00 0.00 0.00 57 1010.8
20260506222507 11 16 8.0 11.3 0.00 0.00 0.00 55 1010.9
20260506222007 11 15 8.0 11.3 0.00 0.00 0.00 55 1010.9
20260506221508 11 14 6.4 11.3 0.00 0.00 0.00 55 1010.9
20260506221007 10 30 4.8 8.0 0.00 0.00 0.00 55 1010.9
20260506220508 10 14 3.2 8.0 0.00 0.00 0.00 57 1010.9
20260506220007 10 8 4.8 8.0 0.00 0.00 0.00 56 1010.9
20260506215507 10 0 4.8 8.0 0.00 0.00 0.00 56 1010.9
20260506215007 10 7 4.8 8.0 0.00 0.00 0.00 56 1010.8
20260506214507 10 9 4.8 4.8 0.00 0.00 0.00 56 1010.8
20260506214007 10 7 3.2 4.8 0.00 0.00 0.00 57 1010.9
20260506213508 10 3 4.8 8.0 0.00 0.00 0.00 56 1010.8
20260506213007 11 8 4.8 4.8 0.00 0.00 0.00 55 1010.8
20260506212008 11 25 3.2 4.8 0.00 0.00 0.00 53 1010.7
20260506211507 11 17 3.2 4.8 0.00 0.00 0.00 52 1010.7
20260506211007 11 15 3.2 4.8 0.00 0.00 0.00 51 1010.6
20260506210507 12 15 3.2 4.8 0.00 0.00 0.00 49 1010.7
20260506205507 12 15 3.2 4.8 0.00 0.00 0.00 49 1010.8
20260506204508 12 15 3.2 4.8 0.00 0.00 0.00 48 1010.8
20260506203508 12 15 3.2 4.8 0.00 0.00 0.00 49 1010.8
20260506203007 12 15 3.2 4.8 0.00 0.00 0.00 50 1010.8
20260506202007 13 15 3.2 4.8 0.00 0.00 0.00 47 1010.6
20260506201507 13 14 3.2 4.8 0.00 0.00 0.00 46 1010.7
20260506201007 13 5 4.8 4.8 0.00 0.00 0.00 45 1010.6
20260506200507 13 5 4.8 4.8 0.00 0.00 0.00 45 1010.5
20260506195507 13 12 3.2 4.8 0.00 0.00 0.00 46 1010.4
20260506195007 13 22 3.2 4.8 0.00 0.00 0.00 50 1010.4
20260506194507 13 22 3.2 4.8 0.00 0.00 0.00 50 1010.4
20260506193507 14 22 3.2 4.8 0.00 0.00 0.00 48 1010.3
20260506193007 15 22 3.2 4.8 0.00 0.00 0.00 45 1010.3
20260506192007 16 355 0.0 0.0 0.00 0.00 0.00 34 1010.3
20260506191007 16 355 0.0 0.0 0.00 0.00 0.00 35 1010.3
20260506190507 17 355 0.0 0.0 0.00 0.00 0.00 32 1010.3
20260506190008 17 355 0.0 0.0 0.00 0.00 0.00 33 1010.3
20260506185507 17 355 0.0 0.0 0.00 0.00 0.00 33 1010.3
20260506185006 17 355 0.0 0.0 0.00 0.00 0.00 37 1010.3
20260506184507 17 355 0.0 1.6 0.00 0.00 0.00 35 1010.3
20260506184007 17 355 1.6 3.2 0.00 0.00 0.00 36 1010.2
20260506183507 18 355 1.6 3.2 0.00 0.00 0.00 36 1010.2
20260506183008 18 355 3.2 4.8 0.00 0.00 0.00 34 1010.2
20260506182007 18 355 3.2 4.8 0.00 0.00 0.00 30 1010.1
20260506181507 18 358 4.8 4.8 0.00 0.00 0.00 31 1010.1
20260506181007 18 5 3.2 4.8 0.00 0.00 0.00 31 1010.1
20260506180008 19 269 0.0 3.2 0.00 0.00 0.00 31 1010.1
20260506175506 19 269 3.2 4.8 0.00 0.00 0.00 28 1010.2
20260506175007 19 250 1.6 4.8 0.00 0.00 0.00 29 1010.1
20260506174507 18 0 1.6 4.8 0.00 0.00 0.00 30 1010.2
20260506174007 18 292 3.2 4.8 0.00 0.00 0.00 29 1010.2
20260506173507 18 9 3.2 4.8 0.00 0.00 0.00 29 1010.3
20260506173007 19 299 1.6 4.8 0.00 0.00 0.00 30 1010.4
20260506172507 18 313 3.2 9.7 0.00 0.00 0.00 29 1010.4
20260506172007 19 292 4.8 4.8 0.00 0.00 0.00 29 1010.4
20260506171507 19 282 1.6 4.8 0.00 0.00 0.00 29 1010.3
20260506171007 19 261 3.2 9.7 0.00 0.00 0.00 29 1010.4
20260506170506 19 286 3.2 4.8 0.00 0.00 0.00 30 1010.4
20260506165506 19 234 3.2 4.8 0.00 0.00 0.00 29 1010.5
20260506165007 19 231 3.2 9.7 0.00 0.00 0.00 29 1010.5
20260506164507 18 239 1.6 3.2 0.00 0.00 0.00 29 1010.5
20260506163006 18 122 3.2 4.8 0.00 0.00 0.00 30 1010.6
20260506162506 18 140 6.4 12.9 0.00 0.00 0.00 30 1010.6
20260506162007 18 116 3.2 12.9 0.00 0.00 0.00 30 1010.6
20260506161507 18 147 1.6 11.3 0.00 0.00 0.00 30 1010.6
20260506161006 18 162 4.8 12.9 0.00 0.00 0.00 30 1010.6
20260506160506 18 136 3.2 8.0 0.00 0.00 0.00 30 1010.6
20260506155507 18 133 4.8 12.9 0.00 0.00 0.00 31 1010.5
20260506155006 18 101 4.8 12.9 0.00 0.00 0.00 31 1010.6
20260506153506 19 241 3.2 4.8 0.00 0.00 0.00 31 1010.8
20260506153007 18 328 3.2 8.0 0.00 0.00 0.00 33 1011.0
20260506152506 18 293 4.8 12.9 0.00 0.00 0.00 33 1011.0
20260506152006 18 338 3.2 9.7 0.00 0.00 0.00 30 1011.0
20260506151506 18 301 4.8 8.0 0.00 0.00 0.00 32 1011.0
20260506151007 18 251 1.6 8.0 0.00 0.00 0.00 30 1011.1
20260506150012 18 320 3.2 4.8 0.00 0.00 0.00 33 1011.3
20260506145507 17 213 4.8 8.0 0.00 0.00 0.00 34 1011.4
20260506145006 17 131 1.6 4.8 0.00 0.00 0.00 34 1011.5
20260506144507 17 209 3.2 4.8 0.00 0.00 0.00 34 1011.6
20260506143507 17 211 3.2 12.9 0.00 0.00 0.00 35 1011.6
20260506143007 17 190 1.6 9.7 0.00 0.00 0.00 36 1011.6
20260506142506 17 141 3.2 9.7 0.00 0.00 0.00 35 1011.8
20260506142006 17 174 3.2 8.0 0.00 0.00 0.00 36 1011.8
20260506141507 17 132 3.2 9.7 0.00 0.00 0.00 35 1011.9
20260506141006 18 195 4.8 11.3 0.00 0.00 0.00 35 1011.9
20260506140507 18 42 1.6 12.9 0.00 0.00 0.00 35 1011.9
20260506135506 17 14 3.2 11.3 0.00 0.00 0.00 38 1011.9
20260506135006 17 12 4.8 14.5 0.00 0.00 0.00 39 1012.0
20260506134506 17 325 9.7 16.1 0.00 0.00 0.00 39 1012.0
20260506134007 17 24 4.8 11.3 0.00 0.00 0.00 37 1012.1
20260506133007 17 203 8.0 11.3 0.00 0.00 0.00 36 1012.3
20260506132508 17 189 4.8 9.7 0.00 0.00 0.00 36 1012.3
20260506131506 17 140 3.2 12.9 0.00 0.00 0.00 36 1012.5
20260506131006 17 157 4.8 9.7 0.00 0.00 0.00 37 1012.5
20260506130506 17 60 6.4 12.9 0.00 0.00 0.00 37 1012.5
20260506130007 17 65 6.4 9.7 0.00 0.00 0.00 38 1012.5
20260506125007 16 61 8.0 16.1 0.00 0.00 0.00 37 1012.7
20260506124507 17 87 4.8 11.3 0.00 0.00 0.00 38 1012.8
20260506123507 16 56 3.2 8.0 0.00 0.00 0.00 39 1012.7
20260506123007 17 226 4.8 11.3 0.00 0.00 0.00 38 1012.8
20260506122507 17 285 8.0 11.3 0.00 0.00 0.00 42 1012.8
20260506122007 16 289 3.2 4.8 0.00 0.00 0.00 40 1012.9
20260506121006 16 266 3.2 12.9 0.00 0.00 0.00 42 1013.2
20260506120506 16 324 9.7 16.1 0.00 0.00 0.00 42 1013.2
20260506120007 16 114 4.8 9.7 0.00 0.00 0.00 42 1013.1
20260506115506 16 20 4.8 9.7 0.00 0.00 0.00 44 1013.2
20260506115007 16 155 4.8 11.3 0.00 0.00 0.00 43 1013.2
20260506114507 15 116 8.0 14.5 0.00 0.00 0.00 43 1013.2
20260506113506 15 19 8.0 12.9 0.00 0.00 0.00 44 1013.3
20260506113007 16 68 8.0 12.9 0.00 0.00 0.00 44 1013.3
20260506112507 15 233 1.6 8.0 0.00 0.00 0.00 43 1013.4
20260506111507 15 102 6.4 14.5 0.00 0.00 0.00 44 1013.5
20260506111007 15 112 8.0 16.1 0.00 0.00 0.00 44 1013.5
20260506110007 15 11 1.6 8.0 0.00 0.00 0.00 47 1013.5
20260506105506 15 14 1.6 9.7 0.00 0.00 0.00 47 1013.6
20260506105006 15 23 4.8 16.1 0.00 0.00 0.00 47 1013.6
20260506104006 14 292 4.8 9.7 0.00 0.00 0.00 46 1013.4
20260506103506 14 337 3.2 9.7 0.00 0.00 0.00 45 1013.5
20260506103006 14 69 8.0 16.1 0.00 0.00 0.00 48 1013.6
20260506102507 13 52 4.8 16.1 0.00 0.00 0.00 52 1013.6
20260506102008 13 333 9.7 14.5 0.00 0.00 0.00 51 1013.7
20260506101008 13 27 4.8 12.9 0.00 0.00 0.00 51 1013.9
20260506100508 13 11 4.8 11.3 0.00 0.00 0.00 52 1013.9
20260506100008 13 154 8.0 12.9 0.00 0.00 0.00 51 1013.9
20260506095508 13 356 3.2 8.0 0.00 0.00 0.00 52 1013.9
20260506095008 13 9 4.8 14.5 0.00 0.00 0.00 52 1013.9
20260506094008 13 64 3.2 9.7 0.00 0.00 0.00 53 1014.0
20260506093508 13 45 3.2 19.3 0.00 0.00 0.00 54 1013.9
20260506093008 13 133 9.7 14.5 0.00 0.00 0.00 53 1013.9
20260506092508 13 11 3.2 9.7 0.00 0.00 0.00 56 1013.9
20260506092008 13 148 4.8 11.3 0.00 0.00 0.00 53 1013.9
20260506091508 13 64 6.4 12.9 0.00 0.00 0.00 54 1013.9
20260506091008 12 43 4.8 11.3 0.00 0.00 0.00 54 1014.0
20260506090008 12 104 8.0 12.9 0.00 0.00 0.00 57 1014.1
20260506085508 12 107 11.3 14.5 0.00 0.00 0.00 56 1014.1
20260506085008 12 68 6.4 14.5 0.00 0.00 0.00 59 1014.0
20260506084508 12 123 8.0 16.1 0.00 0.00 0.00 59 1013.9
20260506083508 12 62 4.8 16.1 0.00 0.00 0.00 60 1013.9